Back to catalog

CZ-6A DEB

AlivePO
NORAD 64633·DEBRIS·🇨🇳 China

Launched Aug 6, 2024 from Taiyuan Satellite Launch Center

Loading…

Next Passes (next 24 hours)

TLE

FreshSource: Space-Track

Epoch: Sep 14, 2026, 07:01 UTC

1 64633U 24140ADX 26257.29248512  .00002560  00000-0  13037-2 0  9997
2 64633  88.9917 265.5608 0102117 304.1094  55.0435 14.12886872102317

Track CZ-6A DEB in real time with AllMySat

Download on the App Store